Weather History for KARG - November, 2013

Change the Weather History Date:

Saturday, November 23, 2013

  Actual Average Record
Temperature  
Mean Temperature 36 °F -  
Max Temperature 44 °F 53 °F 75 °F (2005)
Min Temperature 26 °F 37 °F 24 °F (2008)
Degree Days  
Heating Degree Days 29    
Moisture  
Dew Point 21 °F    
Average Humidity 54    
Maximum Humidity 75    
Minimum Humidity 31    
Precipitation  
Precipitation 0.01 in - - ()
Sea Level Pressure  
Sea Level Pressure 30.55 in    
Wind  
Wind Speed 13 mph (North)    
Max Wind Speed 22 mph    
Max Gust Speed 26 mph    
Visibility 10 miles    
Events      
Averages and records for this station are not official NWS values.
T = Trace of Precipitation, MM = Missing Value Source: NWS Daily Summary

Daily Weather History Graph

Daily Weather History Graph

Search for Another Location

Airport or City:

Trip Planner

Search our weather history database for the weather conditions in past years. The results will help you decide how hot, cold, wet, or windy it might be!

Date:

Astronomy

Nov. 23, 2013 Rise Set
Actual Time 6:48 AM CST 4:51 PM CST
Civil Twilight 6:20 AM CST 5:19 PM CST
Nautical Twilight 5:49 AM CST 5:50 PM CST
Astronomical Twilight 5:18 AM CST 6:21 PM CST
Moon 10:16 PM CST (11/23) 11:09 AM CST (11/23)
Length of Visible Light 10h 58m
Length of Day
10h 02m
Waning Gibbous, 69% of the Moon is Illuminated
Nov 23
Waning Gibbous
Nov 25
Last Quarter
Dec 2
New
Dec 9
First Quarter
Dec 17
Full

Hourly Weather History & Observations

Time (CST) Temp. Windchill Dew Point Humidity Pressure Visibility Wind Dir Wind Speed Gust Speed Precip Events Conditions
12:15 AM 39.2 °F 31.6 °F 32.0 °F 75% 30.46 in 10.0 mi North 12.7 mph - N/A   Overcast
12:35 AM 39.2 °F 32.5 °F 30.2 °F 70% 30.46 in 10.0 mi North 10.4 mph - N/A   Overcast
12:55 AM 39.2 °F 31.2 °F 30.2 °F 70% 30.47 in 10.0 mi North 13.8 mph - 0.01 in   Overcast
1:15 AM 37.4 °F 28.5 °F 30.2 °F 75% 30.46 in 10.0 mi North 15.0 mph 20.7 mph N/A   Overcast
1:35 AM 37.4 °F 29.3 °F 30.2 °F 75% 30.47 in 10.0 mi North 12.7 mph - N/A   Overcast
1:55 AM 37.4 °F 28.9 °F 30.2 °F 75% 30.47 in 10.0 mi North 13.8 mph 19.6 mph N/A   Mostly Cloudy
2:15 AM 37.4 °F 29.8 °F 30.2 °F 75% 30.47 in 10.0 mi North 11.5 mph - N/A   Mostly Cloudy
2:35 AM 37.4 °F 29.8 °F 30.2 °F 75% 30.48 in 10.0 mi North 11.5 mph - N/A   Overcast
2:55 AM 37.4 °F 30.3 °F 30.2 °F 75% 30.47 in 10.0 mi North 10.4 mph - N/A   Mostly Cloudy
3:15 AM 37.4 °F 30.8 °F 30.2 °F 75% 30.46 in 10.0 mi North 9.2 mph - N/A   Scattered Clouds
3:35 AM 37.4 °F 30.3 °F 30.2 °F 75% 30.47 in 10.0 mi North 10.4 mph - N/A   Mostly Cloudy
3:55 AM 37.4 °F 30.3 °F 30.2 °F 75% 30.47 in 10.0 mi North 10.4 mph - N/A   Overcast
4:15 AM 37.4 °F 29.8 °F 30.2 °F 75% 30.47 in 10.0 mi North 11.5 mph 16.1 mph N/A   Overcast
4:35 AM 37.4 °F 29.8 °F 28.4 °F 70% 30.47 in 10.0 mi North 11.5 mph - N/A   Overcast
4:55 AM 37.4 °F 29.8 °F 28.4 °F 70% 30.48 in 10.0 mi North 11.5 mph - N/A   Mostly Cloudy
5:15 AM 37.4 °F 29.3 °F 28.4 °F 70% 30.48 in 10.0 mi North 12.7 mph - N/A   Scattered Clouds
5:35 AM 37.4 °F 28.9 °F 28.4 °F 70% 30.49 in 10.0 mi North 13.8 mph - N/A   Partly Cloudy
5:55 AM 37.4 °F 30.3 °F 28.4 °F 70% 30.50 in 10.0 mi North 10.4 mph - N/A   Partly Cloudy
6:15 AM 37.4 °F 30.8 °F 28.4 °F 70% 30.51 in 10.0 mi North 9.2 mph - N/A   Partly Cloudy
6:35 AM 37.4 °F 29.3 °F 28.4 °F 70% 30.52 in 10.0 mi North 12.7 mph - N/A   Partly Cloudy
6:55 AM 37.4 °F 29.3 °F 28.4 °F 70% 30.53 in 10.0 mi North 12.7 mph - N/A   Partly Cloudy
7:15 AM 37.4 °F 29.3 °F 28.4 °F 70% 30.53 in 10.0 mi North 12.7 mph - N/A   Partly Cloudy
7:35 AM 37.4 °F 29.8 °F 28.4 °F 70% 30.54 in 10.0 mi North 11.5 mph 17.3 mph N/A   Partly Cloudy
7:55 AM 37.4 °F 28.9 °F 28.4 °F 70% 30.55 in 10.0 mi North 13.8 mph - N/A   Scattered Clouds
8:15 AM 37.4 °F 29.3 °F 26.6 °F 65% 30.55 in 10.0 mi North 12.7 mph 24.2 mph N/A   Partly Cloudy
8:35 AM 37.4 °F 28.2 °F 26.6 °F 65% 30.56 in 10.0 mi North 16.1 mph 23.0 mph N/A   Clear
8:55 AM 37.4 °F 28.5 °F 26.6 °F 65% 30.57 in 10.0 mi North 15.0 mph - N/A   Partly Cloudy
9:15 AM 37.4 °F 29.8 °F 26.6 °F 65% 30.57 in 10.0 mi North 11.5 mph - N/A   Scattered Clouds
9:35 AM 39.2 °F 30.5 °F 26.6 °F 61% 30.58 in 10.0 mi North 16.1 mph 19.6 mph N/A   Mostly Cloudy
9:55 AM 39.2 °F 30.5 °F 24.8 °F 56% 30.58 in 10.0 mi North 16.1 mph 20.7 mph N/A   Scattered Clouds
10:15 AM 39.2 °F 30.5 °F 24.8 °F 56% 30.57 in 10.0 mi North 16.1 mph - N/A   Scattered Clouds
10:35 AM 41.0 °F 32.8 °F 23.0 °F 49% 30.57 in 10.0 mi North 16.1 mph - N/A   Partly Cloudy
10:55 AM 41.0 °F 33.1 °F 23.0 °F 49% 30.56 in 10.0 mi North 15.0 mph 21.9 mph N/A   Clear
11:15 AM 42.8 °F 35.8 °F 21.2 °F 42% 30.56 in 10.0 mi North 13.8 mph 20.7 mph N/A   Clear
11:35 AM 42.8 °F 35.4 °F 21.2 °F 42% 30.56 in 10.0 mi North 15.0 mph - N/A   Partly Cloudy
11:55 AM 42.8 °F 35.8 °F 21.2 °F 42% 30.55 in 10.0 mi North 13.8 mph - N/A   Mostly Cloudy
12:15 PM 42.8 °F 36.6 °F 21.2 °F 42% 30.54 in 10.0 mi North 11.5 mph - N/A   Mostly Cloudy
12:35 PM 42.8 °F 34.5 °F 19.4 °F 39% 30.55 in 10.0 mi NNW 18.4 mph - N/A   Overcast
12:55 PM 42.8 °F 35.4 °F 17.6 °F 36% 30.54 in 10.0 mi North 15.0 mph - N/A   Overcast
1:15 PM 42.8 °F 34.5 °F 17.6 °F 36% 30.54 in 10.0 mi North 18.4 mph - N/A   Mostly Cloudy
1:35 PM 42.8 °F 35.1 °F 17.6 °F 36% 30.53 in 10.0 mi North 16.1 mph - N/A   Mostly Cloudy
1:55 PM 42.8 °F 35.1 °F 17.6 °F 36% 30.53 in 10.0 mi North 16.1 mph - N/A   Overcast
2:15 PM 44.6 °F 37.2 °F 15.8 °F 31% 30.53 in 10.0 mi North 17.3 mph 23.0 mph N/A   Overcast
2:35 PM 42.8 °F 35.8 °F 15.8 °F 34% 30.53 in 10.0 mi North 13.8 mph - N/A   Scattered Clouds
2:55 PM 44.6 °F 38.8 °F 17.6 °F 34% 30.54 in 10.0 mi North 11.5 mph - N/A   Clear
3:15 PM 44.6 °F 38.1 °F 17.6 °F 34% 30.54 in 10.0 mi North 13.8 mph - N/A   Clear
3:35 PM 42.8 °F 37.0 °F 15.8 °F 34% 30.54 in 10.0 mi North 10.4 mph - N/A   Clear
3:55 PM 42.8 °F 38.0 °F 19.4 °F 39% 30.54 in 10.0 mi North 8.1 mph - N/A   Clear
4:15 PM 41.0 °F 35.2 °F 19.4 °F 42% 30.54 in 10.0 mi North 9.2 mph - N/A   Clear
4:35 PM 41.0 °F 35.2 °F 19.4 °F 42% 30.54 in 10.0 mi North 9.2 mph - N/A   Clear
4:55 PM 39.2 °F 33.6 °F 19.4 °F 45% 30.54 in 10.0 mi North 8.1 mph - N/A   Clear
5:15 PM 37.4 °F 31.4 °F 21.2 °F 52% 30.55 in 10.0 mi North 8.1 mph - N/A   Clear
5:35 PM 37.4 °F 30.3 °F 21.2 °F 52% 30.55 in 10.0 mi North 10.4 mph 16.1 mph N/A   Clear
5:55 PM 39.2 °F 33.0 °F 19.4 °F 45% 30.55 in 10.0 mi North 9.2 mph - N/A   Clear
6:15 PM 37.4 °F 26.6 °F 17.6 °F 45% 30.57 in 10.0 mi North 21.9 mph 26.5 mph N/A   Clear
6:35 PM 37.4 °F 28.5 °F 15.8 °F 41% 30.58 in 10.0 mi North 15.0 mph - N/A   Clear
6:55 PM 35.6 °F 25.9 °F 15.8 °F 44% 30.60 in 10.0 mi North 16.1 mph 20.7 mph N/A   Clear
7:15 PM 35.6 °F 27.1 °F 15.8 °F 44% 30.61 in 10.0 mi North 12.7 mph 23.0 mph N/A   Clear
7:35 PM 33.8 °F 24.3 °F 15.8 °F 48% 30.61 in 10.0 mi North 13.8 mph 21.9 mph N/A   Clear
7:55 PM 33.8 °F 24.8 °F 14.0 °F 44% 30.62 in 10.0 mi North 12.7 mph 18.4 mph N/A   Clear
8:15 PM 33.8 °F 24.3 °F 12.2 °F 41% 30.63 in 10.0 mi North 13.8 mph 19.6 mph N/A   Clear
8:35 PM 33.8 °F 22.8 °F 10.4 °F 38% 30.63 in 10.0 mi North 18.4 mph 23.0 mph N/A   Clear
8:55 PM 32.0 °F 22.1 °F 10.4 °F 41% 30.64 in 10.0 mi North 13.8 mph - N/A   Clear
9:15 PM 30.2 °F 19.3 °F 10.4 °F 44% 30.64 in 10.0 mi North 15.0 mph 21.9 mph N/A   Clear
9:35 PM 30.2 °F 19.8 °F 10.4 °F 44% 30.64 in 10.0 mi North 13.8 mph - N/A   Clear
9:55 PM 30.2 °F 19.8 °F 10.4 °F 44% 30.64 in 10.0 mi North 13.8 mph 21.9 mph N/A   Clear
10:15 PM 30.2 °F 19.8 °F 8.6 °F 40% 30.64 in 10.0 mi North 13.8 mph 23.0 mph N/A   Clear
10:35 PM 28.4 °F 17.0 °F 8.6 °F 43% 30.64 in 10.0 mi North 15.0 mph 20.7 mph N/A   Clear
10:55 PM 28.4 °F 16.6 °F 10.4 °F 47% 30.65 in 10.0 mi North 16.1 mph 24.2 mph N/A   Clear
11:15 PM 28.4 °F 17.0 °F 6.8 °F 40% 30.66 in 10.0 mi North 15.0 mph 19.6 mph N/A   Clear
11:35 PM 28.4 °F 18.0 °F 6.8 °F 40% 30.66 in 10.0 mi North 12.7 mph - N/A   Clear
11:55 PM 26.6 °F 14.3 °F 8.6 °F 47% 30.66 in 10.0 mi North 16.1 mph 20.7 mph N/A   Clear